DL5RBD-11 Weather Reports


Display with metric or nautical units.
time (UTC)temp
F
wind
direction
speed
MPH
gust
MPH
rain 1hr
in
rain 24hr
in
rain mn
in
humidity
%
barometer
mb
20190324170137 54 315 0.0 0.0 0.00 0.00 0.00 63 1020.9
20190324165136 55 337 0.0 0.0 0.00 0.00 0.00 63 1021.0
20190324164136 55 315 0.0 0.0 0.00 0.00 0.00 62 1021.1
20190324163136 55 292 0.0 0.0 0.00 0.00 0.00 61 1021.1
20190324162135 56 315 0.0 0.0 0.00 0.00 0.00 61 1021.2
20190324161135 56 337 0.0 0.0 0.00 0.00 0.00 61 1021.2
20190324160135 56 292 0.0 0.0 0.00 0.00 0.00 60 1021.1
20190324155134 56 0 0.0 0.0 0.00 0.00 0.00 59 1021.0
20190324154134 57 337 0.0 0.0 0.00 0.00 0.00 59 1021.0
20190324153133 57 0 0.0 0.0 0.00 0.00 0.00 59 1021.0
20190324152133 57 337 2.0 0.0 0.00 0.00 0.00 59 1021.0
20190324151133 57 337 0.0 0.0 0.00 0.00 0.00 59 1021.0
20190324150133 57 292 7.0 0.0 0.00 0.00 0.00 59 1021.3
20190324145132 57 315 7.0 0.0 0.00 0.00 0.00 58 1021.3
20190324144132 58 337 7.0 0.0 0.00 0.00 0.00 57 1021.3
20190324143131 57 292 0.0 0.0 0.00 0.00 0.00 58 1021.3
20190324142131 57 315 0.0 0.0 0.00 0.00 0.00 58 1021.4
20190324141131 57 337 2.0 0.0 0.00 0.00 0.00 58 1021.5
20190324140130 57 292 4.0 0.0 0.00 0.00 0.00 58 1021.7
20190324135130 57 315 4.0 0.0 0.00 0.00 0.00 58 1021.7
20190324134130 57 315 4.0 0.0 0.00 0.00 0.00 60 1021.7
20190324133129 57 0 0.0 0.0 0.00 0.00 0.00 60 1022.0
20190324132129 57 337 0.0 0.0 0.00 0.00 0.00 60 1021.9
20190324131129 56 0 0.0 0.0 0.00 0.00 0.00 59 1022.1
20190324130128 56 292 4.0 0.0 0.00 0.00 0.00 59 1022.3
20190324125127 56 292 4.0 0.0 0.00 0.00 0.00 59 1022.6
20190324124127 56 315 0.0 0.0 0.00 0.00 0.00 60 1022.6
20190324123127 56 315 0.0 0.0 0.00 0.00 0.00 61 1022.8
20190324122127 56 315 7.0 0.0 0.00 0.00 0.00 61 1022.8
20190324121126 55 315 4.0 0.0 0.00 0.00 0.00 62 1023.0
20190324120126 55 292 4.0 0.0 0.00 0.00 0.00 65 1023.0
20190324115125 55 0 0.0 0.0 0.00 0.00 0.00 65 1023.0
20190324114125 55 315 2.0 0.0 0.00 0.00 0.00 66 1023.1
20190324113125 54 67 0.0 0.0 0.00 0.00 0.00 67 1023.3
20190324112124 54 337 0.0 0.0 0.00 0.00 0.00 67 1023.4
20190324111124 54 337 0.0 0.0 0.00 0.00 0.00 68 1023.4
20190324110124 53 315 2.0 0.0 0.00 0.00 0.00 69 1023.4
20190324105123 52 292 0.0 0.0 0.00 0.00 0.00 70 1023.7
20190324104123 52 292 4.0 0.0 0.00 0.00 0.00 70 1023.6
20190324103123 51 0 0.0 0.0 0.00 0.00 0.00 70 1023.7
20190324102122 51 315 0.0 0.0 0.00 0.00 0.00 71 1023.8
20190324101122 51 292 0.0 0.0 0.00 0.00 0.00 71 1024.0
20190324100122 50 315 4.0 0.0 0.00 0.00 0.00 73 1024.1
20190324095121 50 315 0.0 0.0 0.00 0.00 0.00 76 1024.3
20190324094121 49 292 0.0 0.0 0.00 0.00 0.00 77 1024.4
20190324093120 48 315 0.0 0.0 0.00 0.00 0.00 78 1024.6
20190324092120 47 337 0.0 0.0 0.00 0.00 0.00 79 1024.5
20190324091120 46 315 0.0 0.0 0.00 0.00 0.00 80 1024.7
20190324090119 44 0 0.0 0.0 0.00 0.00 0.00 81 1024.8
20190324085119 44 315 0.0 0.0 0.00 0.00 0.00 82 1024.9
20190324084118 43 337 0.0 0.0 0.00 0.00 0.00 82 1025.0
20190324083118 42 337 0.0 0.0 0.00 0.00 0.00 82 1024.9
20190324082118 41 315 0.0 0.0 0.00 0.00 0.00 82 1025.2
20190324081117 40 135 0.0 0.0 0.00 0.00 0.00 82 1025.3
20190324080117 40 135 0.0 0.0 0.00 0.00 0.00 82 1025.4
20190324075117 39 135 0.0 0.0 0.00 0.00 0.00 83 1025.4
20190324074116 39 135 0.0 0.0 0.00 0.00 0.00 82 1025.3
20190324073114 38 135 0.0 0.0 0.00 0.00 0.00 82 1025.4
20190324072114 37 135 0.0 0.0 0.00 0.00 0.00 82 1025.4
20190324071114 37 135 0.0 0.0 0.00 0.00 0.00 82 1025.3
20190324070113 37 135 0.0 0.0 0.00 0.00 0.00 82 1025.3
20190324065113 37 0 18.0 0.0 0.00 0.00 0.00 82 1025.5
20190324064113 36 135 0.0 0.0 0.00 0.00 0.00 82 1025.4
20190324063112 36 135 0.0 0.0 0.00 0.00 0.00 82 1025.6
20190324062112 35 135 0.0 0.0 0.00 0.00 0.00 82 1025.8
20190324061112 35 135 0.0 0.0 0.00 0.00 0.00 82 1025.6
20190324060111 35 135 0.0 0.0 0.00 0.00 0.00 82 1025.6
20190324055111 35 0 0.0 0.0 0.00 0.00 0.00 82 1025.6
20190324054110 35 135 0.0 0.0 0.00 0.00 0.00 82 1025.8
20190324053110 35 135 0.0 0.0 0.00 0.00 0.00 82 1025.7
20190324052110 35 135 0.0 0.0 0.00 0.00 0.00 82 1025.8
20190324051109 35 135 0.0 0.0 0.00 0.00 0.00 82 1025.7
20190324050109 35 135 0.0 0.0 0.00 0.00 0.00 82 1025.7
20190324045109 35 135 0.0 0.0 0.00 0.00 0.00 81 1025.7
20190324044108 35 135 0.0 0.0 0.00 0.00 0.00 81 1025.8
20190324043108 35 135 0.0 0.0 0.00 0.00 0.00 81 1025.8
20190324042108 35 135 0.0 0.0 0.00 0.00 0.00 81 1025.9
20190324041108 36 135 0.0 0.0 0.00 0.00 0.00 81 1026.0
20190324040107 36 135 0.0 0.0 0.00 0.00 0.00 81 1026.0
20190324035107 36 135 0.0 0.0 0.00 0.00 0.00 81 1026.0
20190324034107 36 135 0.0 0.0 0.00 0.00 0.00 81 1026.2
20190324033106 36 135 0.0 0.0 0.00 0.00 0.00 81 1026.0
20190324032106 37 135 0.0 0.0 0.00 0.00 0.00 81 1026.3
20190324031106 37 135 0.0 0.0 0.00 0.00 0.00 80 1026.3
20190324030105 37 135 0.0 0.0 0.00 0.00 0.00 80 1026.2
20190324025105 37 112 0.0 0.0 0.00 0.00 0.00 80 1026.3
20190324024105 38 112 0.0 0.0 0.00 0.00 0.00 80 1026.3
20190324023105 38 135 0.0 0.0 0.00 0.00 0.00 80 1026.2
20190324022104 38 135 0.0 0.0 0.00 0.00 0.00 80 1026.4
20190324021103 38 135 0.0 0.0 0.00 0.00 0.00 80 1026.3
20190324020103 38 135 0.0 0.0 0.00 0.00 0.00 79 1026.6
20190324015103 38 0 0.0 0.0 0.00 0.00 0.00 79 1026.6
20190324014102 39 135 0.0 0.0 0.00 0.00 0.00 79 1026.7
20190324013102 39 157 0.0 0.0 0.00 0.00 0.00 79 1026.7
20190324012102 39 157 0.0 0.0 0.00 0.00 0.00 79 1026.6
20190324011102 39 157 0.0 0.0 0.00 0.00 0.00 79 1026.5
20190324010101 39 157 0.0 0.0 0.00 0.00 0.00 79 1026.7
20190324005101 39 157 0.0 0.0 0.00 0.00 0.00 79 1026.9
20190324004101 40 157 0.0 0.0 0.00 0.00 0.00 79 1026.9
20190324003100 40 157 0.0 0.0 0.00 0.00 0.00 79 1026.9
20190324002100 40 157 0.0 0.0 0.00 0.00 0.00 79 1027.0
20190324001100 40 157 0.0 0.0 0.00 0.00 0.00 79 1027.1
20190324000059 40 157 0.0 0.0 0.00 0.00 0.00 78 1027.1
20190323235059 41 157 0.0 0.0 0.00 0.00 0.00 78 1027.3
20190323234059 41 157 0.0 0.0 0.00 0.00 0.00 78 1027.2
20190323233058 41 0 0.0 0.0 0.00 0.00 0.00 78 1027.3
20190323232057 41 157 0.0 0.0 0.00 0.00 0.00 77 1027.3
20190323231058 41 157 0.0 0.0 0.00 0.00 0.00 77 1027.4
20190323230057 42 157 0.0 0.0 0.00 0.00 0.00 77 1027.4
20190323225056 42 157 0.0 0.0 0.00 0.00 0.00 77 1027.3
20190323224056 42 157 0.0 0.0 0.00 0.00 0.00 76 1027.4
20190323223055 42 135 0.0 0.0 0.00 0.00 0.00 76 1027.4
20190323222055 43 135 0.0 0.0 0.00 0.00 0.00 75 1027.4
20190323221054 43 135 0.0 0.0 0.00 0.00 0.00 75 1027.6
20190323220054 43 135 0.0 0.0 0.00 0.00 0.00 75 1027.6
20190323215054 44 135 0.0 0.0 0.00 0.00 0.00 74 1027.6
20190323214053 44 135 0.0 0.0 0.00 0.00 0.00 74 1027.7
20190323213053 44 135 0.0 0.0 0.00 0.00 0.00 73 1027.8
20190323212052 45 135 0.0 0.0 0.00 0.00 0.00 74 1027.8
20190323211052 45 135 0.0 0.0 0.00 0.00 0.00 73 1027.8
20190323210052 45 135 0.0 0.0 0.00 0.00 0.00 73 1027.8
20190323205052 46 135 0.0 0.0 0.00 0.00 0.00 72 1027.8
20190323204051 46 157 0.0 0.0 0.00 0.00 0.00 72 1027.9
20190323203051 46 157 0.0 0.0 0.00 0.00 0.00 70 1027.9
20190323202051 47 135 0.0 0.0 0.00 0.00 0.00 70 1027.8
20190323201050 47 135 0.0 0.0 0.00 0.00 0.00 69 1027.8
20190323200050 48 135 0.0 0.0 0.00 0.00 0.00 69 1027.8
20190323195049 48 135 0.0 0.0 0.00 0.00 0.00 68 1027.9
20190323194049 49 135 0.0 0.0 0.00 0.00 0.00 68 1027.8
20190323193048 49 135 0.0 0.0 0.00 0.00 0.00 67 1027.5
20190323192048 49 135 0.0 0.0 0.00 0.00 0.00 67 1027.6
20190323191048 50 135 0.0 0.0 0.00 0.00 0.00 65 1027.7
20190323190048 51 112 0.0 0.0 0.00 0.00 0.00 65 1027.4
20190323185047 51 157 0.0 0.0 0.00 0.00 0.00 64 1027.4
20190323184047 52 157 0.0 0.0 0.00 0.00 0.00 62 1027.3
20190323183046 53 157 0.0 0.0 0.00 0.00 0.00 62 1027.3
20190323182046 53 157 0.0 0.0 0.00 0.00 0.00 61 1027.2
20190323181046 54 157 0.0 0.0 0.00 0.00 0.00 60 1027.1
20190323180045 55 157 0.0 0.0 0.00 0.00 0.00 59 1027.0
20190323175045 56 157 0.0 0.0 0.00 0.00 0.00 56 1027.0
20190323174045 58 225 0.0 0.0 0.00 0.00 0.00 54 1026.8
20190323173044 58 270 0.0 0.0 0.00 0.00 0.00 53 1026.8
20190323172044 60 292 0.0 0.0 0.00 0.00 0.00 51 1026.6
20190323171044 60 292 0.0 0.0 0.00 0.00 0.00 51 1026.6